Location: Asheville, NC
(35.6000°N, 82.5500°W)
Time: 06:37:07
(UTC-05:00)

Vanguard 1 Rocket - Pass Details

Date: 14 February 2018
Orbit: 655 x 4222 km, 34.3° (Epoch: 24 February)

Event Time Altitude Azimuth Distance (km) Brightness Sun altitude
Rises 07:59:07 0° 288° (WNW) 7,873 11.5 7.1°
Reaches altitude 10° 08:05:58 10° 280° (W) 6,344 11.1 8.4°
Maximum altitude 08:20:25 30° 229° (SW) 3,469 10.2 11.1°
Drops below altitude 10° 08:29:07 10° 171° (S) 3,754 11.1 12.7°
Sets 08:32:01 0° 160° (SSE) 4,355 11.7 13.2°
